Location: Carrières
(48.9495°N, 2.0407°E)
Time: 18:18:02
(UTC+00:00)

SR - Pass Details

Date: 19 April 2024
Orbit: 579 x 860 km, 66.7° (Epoch: 22 May)

Event Time Altitude Azimuth Distance (km) Brightness Sun altitude
Exits shadow 04:04:45 - 270° (W) 2,646 ? -8.0°
Reaches altitude 10° 04:05:49 10° 277° (W) 2,323 ? -7.9°
Maximum altitude 04:09:50 21° 326° (NNW) 1,615 ? -7.3°
Drops below altitude 10° 04:13:39 10° 16° (NNE) 2,186 ? -6.7°
Sets 04:16:26 0° 33° (NNE) 3,051 ? -6.3°
